datetime,total release
2003-01-01,4.0
2003-01-02,4.0
2003-01-03,4.0
2003-01-04,4.0
2003-01-05,4.0
2003-01-06,4.0
2003-01-07,4.0
2003-01-08,4.0
2003-01-09,4.0
2003-01-10,4.0
2003-01-11,4.0
2003-01-12,4.0
2003-01-13,4.0
2003-01-14,2.0
2003-01-15,2.0
2003-01-16,2.0
2003-01-17,2.0
2003-01-18,2.0
2003-01-19,2.0
2003-01-20,2.0
2003-01-21,2.0
2003-01-22,2.0
2003-01-23,1.0
2003-01-24,1.0
2003-01-25,1.0
2003-01-26,1.0
2003-01-27,1.0
2003-01-28,1.0
2003-01-29,1.0
2003-01-30,1.0
2003-01-31,1.0
2003-02-01,1.0
2003-02-02,1.0
2003-02-03,1.0
2003-02-04,1.0
2003-02-05,1.0
2003-02-06,1.0
2003-02-07,1.0
2003-02-08,1.0
2003-02-09,1.0
2003-02-10,1.0
2003-02-11,1.0
2003-02-12,1.0
2003-02-13,1.0
2003-02-14,1.0
2003-02-15,1.0
2003-02-16,1.0
2003-02-17,1.0
2003-02-18,1.0
2003-02-19,1.0
2003-02-20,1.0
2003-02-21,1.0
2003-02-22,1.0
2003-02-23,1.0
2003-02-24,1.0
2003-02-25,1.0
2003-02-26,1.0
2003-02-27,1.0
2003-02-28,1.0
2003-03-01,1.0
2003-03-02,1.0
2003-03-03,1.0
2003-03-04,1.0
2003-03-05,1.0
2003-03-06,1.0
2003-03-07,1.0
2003-03-08,1.0
2003-03-09,1.0
2003-03-10,1.0
2003-03-11,1.0
2003-03-12,1.0
2003-03-13,1.0
2003-03-14,1.0
2003-03-15,1.0
2003-03-16,1.0
2003-03-17,1.0
2003-03-18,1.0
2003-03-19,1.0
2003-03-20,1.0
2003-03-21,1.0
2003-03-22,1.0
2003-03-23,1.0
2003-03-24,1.0
2003-03-25,1.0
2003-03-26,1.0
2003-03-27,1.0
2003-03-28,1.0
2003-03-29,1.0
2003-03-30,1.0
2003-03-31,1.0
2003-04-01,5.0
2003-04-02,5.0
2003-04-03,5.0
2003-04-04,5.0
2003-04-05,5.0
2003-04-06,5.0
2003-04-07,5.0
2003-04-08,5.0
2003-04-09,5.0
2003-04-10,5.0
2003-04-11,5.0
2003-04-12,20.0
2003-04-13,20.0
2003-04-14,35.0
2003-04-15,55.0
2003-04-16,55.0
2003-04-17,55.0
2003-04-18,55.0
2003-04-19,45.0
2003-04-20,45.0
2003-04-21,45.0
2003-04-22,45.0
2003-04-23,30.0
2003-04-24,30.0
2003-04-25,40.0
2003-04-26,40.0
2003-04-27,40.0
2003-04-28,40.0
2003-04-29,50.0
2003-04-30,50.0
2003-05-01,55.0
2003-05-02,55.0
2003-05-03,55.0
2003-05-04,55.0
2003-05-05,55.0
2003-05-06,40.0
2003-05-07,40.0
2003-05-08,40.0
2003-05-09,30.0
2003-05-10,30.0
2003-05-11,30.0
2003-05-12,30.0
2003-05-13,45.0
2003-05-14,45.0
2003-05-15,90.0
2003-05-16,90.0
2003-05-17,160.0
2003-05-18,160.0
2003-05-19,217.0
2003-05-20,217.0
2003-05-21,219.0
2003-05-22,219.0
2003-05-23,235.0
2003-05-24,325.0
2003-05-25,349.0
2003-05-26,374.0
2003-05-27,387.0
2003-05-28,400.0
2003-05-29,400.0
2003-05-30,400.0
2003-05-31,400.0
2003-06-01,349.0
2003-06-02,284.0
2003-06-03,209.0
2003-06-04,230.0
2003-06-05,254.0
2003-06-06,179.0
2003-06-07,155.0
2003-06-08,147.0
2003-06-09,139.0
2003-06-10,139.0
2003-06-11,139.0
2003-06-12,139.0
2003-06-13,139.0
2003-06-14,115.0
2003-06-15,94.0
2003-06-16,74.0
2003-06-17,64.0
2003-06-18,56.0
2003-06-19,47.0
2003-06-20,40.0
2003-06-21,40.0
2003-06-22,40.0
2003-06-23,40.0
2003-06-24,47.0
2003-06-25,56.0
2003-06-26,64.0
2003-06-27,74.0
2003-06-28,61.0
2003-06-29,50.0
2003-06-30,40.0
2003-07-01,40.0
2003-07-02,32.0
2003-07-03,26.0
2003-07-04,23.0
2003-07-05,20.0
2003-07-06,18.0
2003-07-07,16.0
2003-07-08,14.0
2003-07-09,12.0
2003-07-10,11.0
2003-07-11,10.0
2003-07-12,35.0
2003-07-13,35.0
2003-07-14,35.0
2003-07-15,35.0
2003-07-16,35.0
2003-07-17,35.0
2003-07-18,45.0
2003-07-19,45.0
2003-07-20,45.0
2003-07-21,45.0
2003-07-22,45.0
2003-07-23,45.0
2003-07-24,45.0
2003-07-25,45.0
2003-07-26,45.0
2003-07-27,45.0
2003-07-28,45.0
2003-07-29,45.0
2003-07-30,45.0
2003-07-31,45.0
2003-08-01,45.0
2003-08-02,45.0
2003-08-03,45.0
2003-08-04,45.0
2003-08-05,45.0
2003-08-06,45.0
2003-08-07,45.0
2003-08-08,35.0
2003-08-09,35.0
2003-08-10,35.0
2003-08-11,35.0
2003-08-12,23.0
2003-08-13,23.0
2003-08-14,23.0
2003-08-15,23.0
2003-08-16,15.0
2003-08-17,15.0
2003-08-18,15.0
2003-08-19,10.0
2003-08-20,10.0
2003-08-21,10.0
2003-08-22,10.0
2003-08-23,10.0
2003-08-24,10.0
2003-08-25,10.0
2003-08-26,10.0
2003-08-27,10.0
2003-08-28,10.0
2003-08-29,10.0
2003-08-30,10.0
2003-08-31,10.0
2003-09-01,10.0
2003-09-02,10.0
2003-09-03,8.0
2003-09-04,8.0
2003-09-05,8.0
2003-09-06,8.0
2003-09-07,8.0
2003-09-08,8.0
2003-09-09,6.0
2003-09-10,5.0
2003-09-11,5.0
2003-09-12,5.0
2003-09-13,5.0
2003-09-14,5.0
2003-09-15,5.0
2003-09-16,5.0
2003-09-17,5.0
2003-09-18,5.0
2003-09-19,5.0
2003-09-20,5.0
2003-09-21,5.0
2003-09-22,5.0
2003-09-23,5.0
2003-09-24,5.0
2003-09-25,5.0
2003-09-26,5.0
2003-09-27,5.0
2003-09-28,5.0
2003-09-29,5.0
2003-09-30,4.0
2003-10-01,4.0
2003-10-02,4.0
2003-10-03,4.0
2003-10-04,2.0
2003-10-05,2.0
2003-10-06,2.0
2003-10-07,2.0
2003-10-08,2.0
2003-10-09,2.0
2003-10-10,2.0
2003-10-11,2.0
2003-10-12,2.0
2003-10-13,2.0
2003-10-14,2.0
2003-10-15,2.0
2003-10-16,2.0
2003-10-17,2.0
2003-10-18,2.0
2003-10-19,2.0
2003-10-20,2.0
2003-10-21,1.0
2003-10-22,1.0
2003-10-23,1.0
2003-10-24,1.0
2003-10-25,1.0
2003-10-26,1.0
2003-10-27,1.0
2003-10-28,1.0
2003-10-29,1.0
2003-10-30,1.0
2003-10-31,1.0
2003-11-01,1.0
2003-11-02,1.0
2003-11-03,1.0
2003-11-04,1.0
2003-11-05,1.0
2003-11-06,1.0
2003-11-07,1.0
2003-11-08,1.0
2003-11-09,1.0
2003-11-10,1.0
2003-11-11,1.0
2003-11-12,1.0
2003-11-13,1.0
2003-11-14,1.0
2003-11-15,1.0
2003-11-16,1.0
2003-11-17,1.0
2003-11-18,1.0
2003-11-19,1.0
2003-11-20,1.0
2003-11-21,1.0
2003-11-22,1.0
2003-11-23,1.0
2003-11-24,1.0
2003-11-25,1.0
2003-11-26,1.0
2003-11-27,1.0
2003-11-28,1.0
2003-11-29,1.0
2003-11-30,1.0
2003-12-01,1.0
2003-12-02,1.0
2003-12-03,1.0
2003-12-04,1.0
2003-12-05,1.0
2003-12-06,1.0
2003-12-07,1.0
2003-12-08,1.0
2003-12-09,1.0
2003-12-10,1.0
2003-12-11,1.0
2003-12-12,1.0
2003-12-13,1.0
2003-12-14,1.0
2003-12-15,1.0
2003-12-16,1.0
2003-12-17,1.0
2003-12-18,1.0
2003-12-19,1.0
2003-12-20,1.0
2003-12-21,1.0
2003-12-22,1.0
2003-12-23,1.0
2003-12-24,1.0
2003-12-25,1.0
2003-12-26,1.0
2003-12-27,1.0
2003-12-28,1.0
2003-12-29,1.0
2003-12-30,1.0
2003-12-31,1.0
2004-01-01,1.0
2004-01-02,1.0
2004-01-03,1.0
2004-01-04,1.0
2004-01-05,1.0
2004-01-06,1.0
2004-01-07,1.0
2004-01-08,1.0
2004-01-09,1.0
2004-01-10,1.0
2004-01-11,1.0
2004-01-12,1.0
2004-01-13,1.0
2004-01-14,1.0
2004-01-15,1.0
2004-01-16,1.0
2004-01-17,1.0
2004-01-18,1.0
2004-01-19,1.0
2004-01-20,1.0
2004-01-21,1.0
2004-01-22,1.0
2004-01-23,1.0
2004-01-24,1.0
2004-01-25,1.0
2004-01-26,1.0
2004-01-27,1.0
2004-01-28,1.0
2004-01-29,1.0
2004-01-30,1.0
2004-01-31,1.0
2004-02-01,1.0
2004-02-02,1.0
2004-02-03,1.0
2004-02-04,1.0
2004-02-05,1.0
2004-02-06,1.0
2004-02-07,1.0
2004-02-08,1.0
2004-02-09,1.0
2004-02-10,1.0
2004-02-11,1.0
2004-02-12,1.0
2004-02-13,1.0
2004-02-14,1.0
2004-02-15,1.0
2004-02-16,1.0
2004-02-17,1.0
2004-02-18,1.0
2004-02-19,1.0
2004-02-20,1.0
2004-02-21,1.0
2004-02-22,1.0
2004-02-23,1.0
2004-02-24,1.0
2004-02-25,1.0
2004-02-26,1.0
2004-02-27,1.0
2004-02-28,1.0
2004-02-29,1.0
2004-03-01,1.0
2004-03-02,4.0
2004-03-03,4.0
2004-03-04,4.0
2004-03-05,4.0
2004-03-06,4.0
2004-03-07,4.0
2004-03-08,4.0
2004-03-09,4.0
2004-03-10,4.0
2004-03-11,4.0
2004-03-12,4.0
2004-03-13,4.0
2004-03-14,4.0
2004-03-15,4.0
2004-03-16,8.0
2004-03-17,8.0
2004-03-18,8.0
2004-03-19,8.0
2004-03-20,8.0
2004-03-21,8.0
2004-03-22,8.0
2004-03-23,8.0
2004-03-24,8.0
2004-03-25,20.0
2004-03-26,20.0
2004-03-27,20.0
2004-03-28,20.0
2004-03-29,20.0
2004-03-30,40.0
2004-03-31,40.0
2004-04-01,31.0
2004-04-02,31.0
2004-04-03,31.0
2004-04-04,31.0
2004-04-05,31.0
2004-04-06,43.0
2004-04-07,43.0
2004-04-08,60.0
2004-04-09,60.0
2004-04-10,55.0
2004-04-11,55.0
2004-04-12,55.0
2004-04-13,52.0
2004-04-14,52.0
2004-04-15,52.0
2004-04-16,52.0
2004-04-17,40.0
2004-04-18,40.0
2004-04-19,40.0
2004-04-20,40.0
2004-04-21,40.0
2004-04-22,40.0
2004-04-23,30.0
2004-04-24,30.0
2004-04-25,30.0
2004-04-26,30.0
2004-04-27,30.0
2004-04-28,50.0
2004-04-29,50.0
2004-04-30,50.0
2004-05-01,50.0
2004-05-02,50.0
2004-05-03,50.0
2004-05-04,90.0
2004-05-05,90.0
2004-05-06,208.0
2004-05-07,208.0
2004-05-08,208.0
2004-05-09,208.0
2004-05-10,208.0
2004-05-11,217.0
2004-05-12,217.0
2004-05-13,150.0
2004-05-14,150.0
2004-05-15,140.0
2004-05-16,140.0
2004-05-17,140.0
2004-05-18,100.0
2004-05-19,100.0
2004-05-20,165.0
2004-05-21,165.0
2004-05-22,160.0
2004-05-23,160.0
2004-05-24,160.0
2004-05-25,140.0
2004-05-26,10.0
2004-05-27,10.0
2004-05-28,25.0
2004-05-29,109.0
2004-05-30,130.0
2004-05-31,131.0
2004-06-01,131.0
2004-06-02,156.0
2004-06-03,182.0
2004-06-04,210.0
2004-06-05,210.0
2004-06-06,210.0
2004-06-07,210.0
2004-06-08,182.0
2004-06-09,156.0
2004-06-10,131.0
2004-06-11,107.0
2004-06-12,107.0
2004-06-13,107.0
2004-06-14,107.0
2004-06-15,102.0
2004-06-16,96.0
2004-06-17,91.0
2004-06-18,86.0
2004-06-19,79.0
2004-06-20,72.0
2004-06-21,66.0
2004-06-22,61.0
2004-06-23,56.0
2004-06-24,52.0
2004-06-25,48.0
2004-06-26,43.0
2004-06-27,39.0
2004-06-28,35.0
2004-06-29,32.0
2004-06-30,32.0
2004-07-01,19.0
2004-07-02,17.0
2004-07-03,15.0
2004-07-04,12.0
2004-07-05,10.0
2004-07-06,9.0
2004-07-07,29.0
2004-07-08,29.0
2004-07-09,29.0
2004-07-10,29.0
2004-07-11,29.0
2004-07-12,29.0
2004-07-13,29.0
2004-07-14,29.0
2004-07-15,29.0
2004-07-16,29.0
2004-07-17,29.0
2004-07-18,29.0
2004-07-19,29.0
2004-07-20,29.0
2004-07-21,29.0
2004-07-22,29.0
2004-07-23,29.0
2004-07-24,29.0
2004-07-25,29.0
2004-07-26,29.0
2004-07-27,29.0
2004-07-28,29.0
2004-07-29,29.0
2004-07-30,29.0
2004-07-31,29.0
2004-08-01,29.0
2004-08-02,29.0
2004-08-03,29.0
2004-08-04,29.0
2004-08-05,29.0
2004-08-06,29.0
2004-08-07,29.0
2004-08-08,29.0
2004-08-09,29.0
2004-08-10,29.0
2004-08-11,29.0
2004-08-12,29.0
2004-08-13,29.0
2004-08-14,29.0
2004-08-15,29.0
2004-08-16,29.0
2004-08-17,29.0
2004-08-18,29.0
2004-08-19,29.0
2004-08-20,29.0
2004-08-21,29.0
2004-08-22,29.0
2004-08-23,29.0
2004-08-24,29.0
2004-08-25,29.0
2004-08-26,29.0
2004-08-27,29.0
2004-08-28,29.0
2004-08-29,29.0
2004-08-30,29.0
2004-08-31,29.0
2004-09-01,29.0
2004-09-02,29.0
2004-09-03,24.0
2004-09-04,24.0
2004-09-05,10.0
2004-09-06,10.0
2004-09-07,10.0
2004-09-08,10.0
2004-09-09,10.0
2004-09-10,5.0
2004-09-11,5.0
2004-09-12,5.0
2004-09-13,5.0
2004-09-14,3.0
2004-09-15,3.0
2004-09-16,3.0
2004-09-17,3.0
2004-09-18,3.0
2004-09-19,3.0
2004-09-20,3.0
2004-09-21,3.0
2004-09-22,3.0
2004-09-23,3.0
2004-09-24,3.0
2004-09-25,3.0
2004-09-26,3.0
2004-09-27,3.0
2004-09-28,3.0
2004-09-29,3.0
2004-09-30,3.0
2004-10-01,3.0
2004-10-02,3.0
2004-10-03,3.0
2004-10-04,3.0
2004-10-05,3.0
2004-10-06,3.0
2004-10-07,3.0
2004-10-08,3.0
2004-10-09,3.0
2004-10-10,3.0
2004-10-11,3.0
2004-10-12,3.0
2004-10-13,3.0
2004-10-14,3.0
2004-10-15,3.0
2004-10-16,3.0
2004-10-17,3.0
2004-10-18,3.0
2004-10-19,3.0
2004-10-20,3.0
2004-10-21,3.0
2004-10-22,3.0
2004-10-23,3.0
2004-10-24,3.0
2004-10-25,3.0
2004-10-26,3.0
2004-10-27,3.0
2004-10-28,3.0
2004-10-29,3.0
2004-10-30,3.0
2004-10-31,3.0
2004-11-01,3.0
2004-11-02,3.0
2004-11-03,3.0
2004-11-04,3.0
2004-11-05,3.0
2004-11-06,3.0
2004-11-07,3.0
2004-11-08,3.0
2004-11-09,3.0
2004-11-10,3.0
2004-11-11,3.0
2004-11-12,3.0
2004-11-13,3.0
2004-11-14,3.0
2004-11-15,3.0
2004-11-16,3.0
2004-11-17,3.0
2004-11-18,3.0
2004-11-19,3.0
2004-11-20,3.0
2004-11-21,3.0
2004-11-22,3.0
2004-11-23,3.0
2004-11-24,3.0
2004-11-25,3.0
2004-11-26,3.0
2004-11-27,3.0
2004-11-28,3.0
2004-11-29,3.0
2004-11-30,3.0
2004-12-01,3.0
2004-12-02,3.0
2004-12-03,3.0
2004-12-04,3.0
2004-12-05,3.0
2004-12-06,3.0
2004-12-07,3.0
2004-12-08,3.0
2004-12-09,3.0
2004-12-10,3.0
2004-12-11,3.0
2004-12-12,3.0
2004-12-13,3.0
2004-12-14,3.0
2004-12-15,3.0
2004-12-16,3.0
2004-12-17,3.0
2004-12-18,3.0
2004-12-19,3.0
2004-12-20,3.0
2004-12-21,3.0
2004-12-22,3.0
2004-12-23,3.0
2004-12-24,3.0
2004-12-25,3.0
2004-12-26,3.0
2004-12-27,3.0
2004-12-28,3.0
2004-12-29,3.0
2004-12-30,3.0
2004-12-31,3.0
2005-01-01,3.0
2005-01-02,3.0
2005-01-03,3.0
2005-01-04,3.0
2005-01-05,3.0
2005-01-06,3.0
2005-01-07,3.0
2005-01-08,3.0
2005-01-09,3.0
2005-01-10,3.0
2005-01-11,3.0
2005-01-12,10.0
2005-01-13,10.0
2005-01-14,10.0
2005-01-15,10.0
2005-01-16,10.0
2005-01-17,10.0
2005-01-18,10.0
2005-01-19,10.0
2005-01-20,5.0
2005-01-21,5.0
2005-01-22,5.0
2005-01-23,5.0
2005-01-24,5.0
2005-01-25,5.0
2005-01-26,5.0
2005-01-27,5.0
2005-01-28,5.0
2005-01-29,5.0
2005-01-30,5.0
2005-01-31,5.0
2005-02-01,5.0
2005-02-02,5.0
2005-02-03,5.0
2005-02-04,5.0
2005-02-05,5.0
2005-02-06,5.0
2005-02-07,5.0
2005-02-08,5.0
2005-02-09,5.0
2005-02-10,5.0
2005-02-11,5.0
2005-02-12,5.0
2005-02-13,5.0
2005-02-14,5.0
2005-02-15,5.0
2005-02-16,5.0
2005-02-17,5.0
2005-02-18,5.0
2005-02-19,5.0
2005-02-20,5.0
2005-02-21,5.0
2005-02-22,5.0
2005-02-23,5.0
2005-02-24,5.0
2005-02-25,5.0
2005-02-26,5.0
2005-02-27,5.0
2005-02-28,5.0
2005-03-01,5.0
2005-03-02,5.0
2005-03-03,5.0
2005-03-04,5.0
2005-03-05,5.0
2005-03-06,5.0
2005-03-07,5.0
2005-03-08,6.0
2005-03-09,6.0
2005-03-10,6.0
2005-03-11,6.0
2005-03-12,6.0
2005-03-13,6.0
2005-03-14,6.0
2005-03-15,6.0
2005-03-16,6.0
2005-03-17,6.0
2005-03-18,6.0
2005-03-19,6.0
2005-03-20,6.0
2005-03-21,6.0
2005-03-22,6.0
2005-03-23,9.0
2005-03-24,9.0
2005-03-25,9.0
2005-03-26,9.0
2005-03-27,9.0
2005-03-28,9.0
2005-03-29,9.0
2005-03-30,9.0
2005-03-31,9.0
2005-04-01,9.0
2005-04-02,9.0
2005-04-03,9.0
2005-04-04,9.0
2005-04-05,9.0
2005-04-06,9.0
2005-04-07,9.0
2005-04-08,9.0
2005-04-09,14.0
2005-04-10,14.0
2005-04-11,14.0
2005-04-12,14.0
2005-04-13,14.0
2005-04-14,14.0
2005-04-15,14.0
2005-04-16,30.0
2005-04-17,30.0
2005-04-18,30.0
2005-04-19,50.0
2005-04-20,50.0
2005-04-21,50.0
2005-04-22,70.0
2005-04-23,70.0
2005-04-24,70.0
2005-04-25,70.0
2005-04-26,70.0
2005-04-27,70.0
2005-04-28,70.0
2005-04-29,70.0
2005-04-30,70.0
2005-05-01,85.0
2005-05-02,85.0
2005-05-03,85.0
2005-05-04,85.0
2005-05-05,85.0
2005-05-06,85.0
2005-05-07,85.0
2005-05-08,85.0
2005-05-09,85.0
2005-05-10,120.0
2005-05-11,120.0
2005-05-12,120.0
2005-05-13,120.0
2005-05-14,120.0
2005-05-15,120.0
2005-05-16,120.0
2005-05-17,120.0
2005-05-18,150.0
2005-05-19,150.0
2005-05-20,205.0
2005-05-21,217.0
2005-05-22,402.0
2005-05-23,459.0
2005-05-24,436.75
2005-05-25,415.5
2005-05-26,394.25
2005-05-27,375.0
2005-05-28,355.75
2005-05-29,337.5
2005-05-30,320.25
2005-05-31,304.0
2005-06-01,304.0
2005-06-02,274.0
2005-06-03,250.0
2005-06-04,193.0
2005-06-05,234.0
2005-06-06,283.0
2005-06-07,267.0
2005-06-08,219.0
2005-06-09,167.0
2005-06-10,161.0
2005-06-11,155.0
2005-06-12,149.0
2005-06-13,144.0
2005-06-14,166.0
2005-06-15,252.0
2005-06-16,357.0
2005-06-17,448.0
2005-06-18,436.0
2005-06-19,424.0
2005-06-20,412.0
2005-06-21,401.0
2005-06-22,401.0
2005-06-23,401.0
2005-06-24,369.0
2005-06-25,338.0
2005-06-26,309.0
2005-06-27,283.0
2005-06-28,259.0
2005-06-29,238.0
2005-06-30,134.0
2005-07-01,204.0
2005-07-02,191.0
2005-07-03,179.0
2005-07-04,167.0
2005-07-05,155.0
2005-07-06,118.0
2005-07-07,126.0
2005-07-08,134.0
2005-07-09,153.0
2005-07-10,138.0
2005-07-11,124.0
2005-07-12,117.0
2005-07-13,110.0
2005-07-14,104.0
2005-07-15,109.0
2005-07-16,101.0
2005-07-17,92.0
2005-07-18,85.0
2005-07-19,35.0
2005-07-20,35.0
2005-07-21,35.0
2005-07-22,35.0
2005-07-23,35.0
2005-07-24,35.0
2005-07-25,35.0
2005-07-26,35.0
2005-07-27,35.0
2005-07-28,35.0
2005-07-29,21.0
2005-07-30,11.0
2005-07-31,5.0
2005-08-01,7.0
2005-08-02,23.0
2005-08-03,23.0
2005-08-04,23.0
2005-08-05,23.0
2005-08-06,23.0
2005-08-07,23.0
2005-08-08,23.0
2005-08-09,23.0
2005-08-10,23.0
2005-08-11,23.0
2005-08-12,23.0
2005-08-13,23.0
2005-08-14,23.0
2005-08-15,23.0
2005-08-16,23.0
2005-08-17,23.0
2005-08-18,23.0
2005-08-19,23.0
2005-08-20,23.0
2005-08-21,23.0
2005-08-22,23.0
2005-08-23,23.0
2005-08-24,23.0
2005-08-25,23.0
2005-08-26,23.0
2005-08-27,23.0
2005-08-28,23.0
2005-08-29,23.0
2005-08-30,23.0
2005-08-31,23.0
2005-09-01,23.0
2005-09-02,23.0
2005-09-03,23.0
2005-09-04,23.0
2005-09-05,23.0
2005-09-06,23.0
2005-09-07,23.0
2005-09-08,23.0
2005-09-09,4.0
2005-09-10,4.0
2005-09-11,4.0
2005-09-12,4.0
2005-09-13,2.0
2005-09-14,2.0
2005-09-15,2.0
2005-09-16,2.0
2005-09-17,2.0
2005-09-18,2.0
2005-09-19,2.0
2005-09-20,2.0
2005-09-21,2.0
2005-09-22,2.0
2005-09-23,2.0
2005-09-24,2.0
2005-09-25,2.0
2005-09-26,2.0
2005-09-27,2.0
2005-09-28,2.0
2005-09-29,2.0
2005-09-30,2.0
2005-10-01,2.0
2005-10-02,2.0
2005-10-03,2.0
2005-10-04,2.0
2005-10-05,2.0
2005-10-06,2.0
2005-10-07,2.0
2005-10-08,2.0
2005-10-09,2.0
2005-10-10,2.0
2005-10-11,2.0
2005-10-12,2.0
2005-10-13,2.0
2005-10-14,2.0
2005-10-15,2.0
2005-10-16,2.0
2005-10-17,2.0
2005-10-18,2.0
2005-10-19,2.0
2005-10-20,2.0
2005-10-21,2.0
2005-10-22,2.0
2005-10-23,2.0
2005-10-24,2.0
2005-10-25,2.0
2005-10-26,2.0
2005-10-27,2.0
2005-10-28,2.0
2005-10-29,2.0
2005-10-30,2.0
2005-10-31,2.0
2005-11-01,2.0
2005-11-02,2.0
2005-11-03,2.0
2005-11-04,2.0
2005-11-05,2.0
2005-11-06,2.0
2005-11-07,2.0
2005-11-08,2.0
2005-11-09,2.0
2005-11-10,2.0
2005-11-11,2.0
2005-11-12,2.0
2005-11-13,2.0
2005-11-14,2.0
2005-11-15,2.0
2005-11-16,2.0
2005-11-17,2.0
2005-11-18,2.0
2005-11-19,2.0
2005-11-20,2.0
2005-11-21,2.0
2005-11-22,2.0
2005-11-23,2.0
2005-11-24,2.0
2005-11-25,2.0
2005-11-26,2.0
2005-11-27,2.0
2005-11-28,2.0
2005-11-29,2.0
2005-11-30,2.0
2005-12-01,2.0
2005-12-02,2.0
2005-12-03,2.0
2005-12-04,2.0
2005-12-05,2.0
2005-12-06,2.0
2005-12-07,2.0
2005-12-08,2.0
2005-12-09,2.0
2005-12-10,2.0
2005-12-11,2.0
2005-12-12,2.0
2005-12-13,2.0
2005-12-14,2.0
2005-12-15,2.0
2005-12-16,2.0
2005-12-17,2.0
2005-12-18,2.0
2005-12-19,2.0
2005-12-20,2.0
2005-12-21,2.0
2005-12-22,2.0
2005-12-23,2.0
2005-12-24,2.0
2005-12-25,2.0
2005-12-26,2.0
2005-12-27,2.0
2005-12-28,2.0
2005-12-29,2.0
2005-12-30,2.0
2005-12-31,2.0
2006-01-01,2.0
2006-01-02,2.0
2006-01-03,2.0
2006-01-04,2.0
2006-01-05,2.0
2006-01-06,4.0
2006-01-07,4.0
2006-01-08,4.0
2006-01-09,4.0
2006-01-10,4.0
2006-01-11,4.0
2006-01-12,4.0
2006-01-13,4.0
2006-01-14,4.0
2006-01-15,4.0
2006-01-16,4.0
2006-01-17,4.0
2006-01-18,4.0
2006-01-19,4.0
2006-01-20,4.0
2006-01-21,4.0
2006-01-22,4.0
2006-01-23,4.0
2006-01-24,4.0
2006-01-25,4.0
2006-01-26,4.0
2006-01-27,4.0
2006-01-28,4.0
2006-01-29,4.0
2006-01-30,4.0
2006-01-31,4.0
2006-02-01,4.0
2006-02-02,4.0
2006-02-03,4.0
2006-02-04,4.0
2006-02-05,4.0
2006-02-06,4.0
2006-02-07,4.0
2006-02-08,4.0
2006-02-09,4.0
2006-02-10,4.0
2006-02-11,4.0
2006-02-12,4.0
2006-02-13,4.0
2006-02-14,4.0
2006-02-15,4.0
2006-02-16,4.0
2006-02-17,4.0
2006-02-18,4.0
2006-02-19,4.0
2006-02-20,4.0
2006-02-21,4.0
2006-02-22,4.0
2006-02-23,4.0
2006-02-24,4.0
2006-02-25,4.0
2006-02-26,4.0
2006-02-27,4.0
2006-02-28,4.0
2006-03-01,4.0
2006-03-02,4.0
2006-03-03,4.0
2006-03-04,4.0
2006-03-05,4.0
2006-03-06,4.0
2006-03-07,4.0
2006-03-08,4.0
2006-03-09,4.0
2006-03-10,4.0
2006-03-11,4.0
2006-03-12,4.0
2006-03-13,4.0
2006-03-14,4.0
2006-03-15,4.0
2006-03-16,4.0
2006-03-17,4.0
2006-03-18,4.0
2006-03-19,4.0
2006-03-20,4.0
2006-03-21,4.0
2006-03-22,4.0
2006-03-23,6.0
2006-03-24,6.0
2006-03-25,6.0
2006-03-26,6.0
2006-03-27,6.0
2006-03-28,6.0
2006-03-29,6.0
2006-03-30,6.0
2006-03-31,6.0
2006-04-01,6.0
2006-04-02,6.0
2006-04-03,6.0
2006-04-04,6.0
2006-04-05,9.0
2006-04-06,9.0
2006-04-07,9.0
2006-04-08,9.0
2006-04-09,9.0
2006-04-10,9.0
2006-04-11,9.0
2006-04-12,9.0
2006-04-13,9.0
2006-04-14,25.0
2006-04-15,25.0
2006-04-16,25.0
2006-04-17,25.0
2006-04-18,25.0
2006-04-19,25.0
2006-04-20,25.0
2006-04-21,47.0
2006-04-22,47.0
2006-04-23,47.0
2006-04-24,47.0
2006-04-25,47.0
2006-04-26,60.0
2006-04-27,60.0
2006-04-28,60.0
2006-04-29,60.0
2006-04-30,60.0
2006-05-01,60.0
2006-05-02,170.0
2006-05-03,170.0
2006-05-04,170.0
2006-05-05,170.0
2006-05-06,207.0
2006-05-07,207.0
2006-05-08,207.0
2006-05-09,193.0
2006-05-10,193.0
2006-05-11,193.0
2006-05-12,193.0
2006-05-13,193.0
2006-05-14,193.0
2006-05-15,193.0
2006-05-16,193.0
2006-05-17,217.0
2006-05-18,304.0
2006-05-19,400.0
2006-05-20,400.0
2006-05-21,400.0
2006-05-22,400.0
2006-05-23,361.0
2006-05-24,325.0
2006-05-25,337.0
2006-05-26,349.0
2006-05-27,288.0
2006-05-28,242.0
2006-05-29,220.0
2006-05-30,220.0
2006-05-31,173.0
2006-06-01,199.0
2006-06-02,258.0
2006-06-03,313.0
2006-06-04,329.0
2006-06-05,346.0
2006-06-06,333.0
2006-06-07,321.0
2006-06-08,284.0
2006-06-09,272.0
2006-06-10,261.0
2006-06-11,251.0
2006-06-12,240.0
2006-06-13,231.0
2006-06-14,180.0
2006-06-15,125.0
2006-06-16,125.0
2006-06-17,105.0
2006-06-18,99.0
2006-06-19,94.0
2006-06-20,89.0
2006-06-21,84.0
2006-06-22,84.0
2006-06-23,64.0
2006-06-24,57.0
2006-06-25,51.0
2006-06-26,46.0
2006-06-27,37.0
2006-06-28,30.0
2006-06-29,22.0
2006-06-30,16.0
2006-07-01,17.0
2006-07-02,17.0
2006-07-03,17.0
2006-07-04,17.0
2006-07-05,17.0
2006-07-06,15.0
2006-07-07,13.0
2006-07-08,10.0
2006-07-09,8.0
2006-07-10,7.0
2006-07-11,5.0
2006-07-12,3.0
2006-07-13,2.0
2006-07-14,1.0
2006-07-15,8.0
2006-07-16,8.0
2006-07-17,8.0
2006-07-18,8.0
2006-07-19,8.0
2006-07-20,8.0
2006-07-21,8.0
2006-07-22,8.0
2006-07-23,8.0
2006-07-24,8.0
2006-07-25,8.0
2006-07-26,23.0
2006-07-27,23.0
2006-07-28,23.0
2006-07-29,23.0
2006-07-30,23.0
2006-07-31,23.0
2006-08-01,23.0
2006-08-02,23.0
2006-08-03,23.0
2006-08-04,23.0
2006-08-05,23.0
2006-08-06,23.0
2006-08-07,23.0
2006-08-08,23.0
2006-08-09,23.0
2006-08-10,23.0
2006-08-11,23.0
2006-08-12,23.0
2006-08-13,23.0
2006-08-14,23.0
2006-08-15,23.0
2006-08-16,23.0
2006-08-17,23.0
2006-08-18,48.0
2006-08-19,63.0
2006-08-20,63.0
2006-08-21,63.0
2006-08-22,63.0
2006-08-23,63.0
2006-08-24,63.0
2006-08-25,63.0
2006-08-26,63.0
2006-08-27,63.0
2006-08-28,63.0
2006-08-29,63.0
2006-08-30,63.0
2006-08-31,63.0
2006-09-01,63.0
2006-09-02,63.0
2006-09-03,43.0
2006-09-04,43.0
2006-09-05,43.0
2006-09-06,43.0
2006-09-07,43.0
2006-09-08,33.0
2006-09-09,33.0
2006-09-10,33.0
2006-09-11,33.0
2006-09-12,33.0
2006-09-13,7.0
2006-09-14,7.0
2006-09-15,7.0
2006-09-16,7.0
2006-09-17,7.0
2006-09-18,7.0
2006-09-19,7.0
2006-09-20,7.0
2006-09-21,11.0
2006-09-22,11.0
2006-09-23,11.0
2006-09-24,11.0
2006-09-25,11.0
2006-09-26,14.0
2006-09-27,14.0
2006-09-28,14.0
2006-09-29,7.0
2006-09-30,7.0
2006-10-01,7.0
2006-10-02,7.0
2006-10-03,7.0
2006-10-04,7.0
2006-10-05,7.0
2006-10-06,7.0
2006-10-07,7.0
2006-10-08,7.0
2006-10-09,7.0
2006-10-10,7.0
2006-10-11,7.0
2006-10-12,7.0
2006-10-13,7.0
2006-10-14,7.0
2006-10-15,7.0
2006-10-16,7.0
2006-10-17,7.0
2006-10-18,25.0
2006-10-19,25.0
2006-10-20,23.0
2006-10-21,23.0
2006-10-22,23.0
2006-10-23,23.0
2006-10-24,22.0
2006-10-25,22.0
2006-10-26,22.0
2006-10-27,20.0
2006-10-28,20.0
2006-10-29,20.0
2006-10-30,20.0
2006-10-31,20.0
2006-11-01,18.0
2006-11-02,15.0
2006-11-03,15.0
2006-11-04,15.0
2006-11-05,15.0
2006-11-06,15.0
2006-11-07,15.0
2006-11-08,15.0
2006-11-09,17.0
2006-11-10,17.0
2006-11-11,17.0
2006-11-12,17.0
2006-11-13,17.0
2006-11-14,17.0
2006-11-15,17.0
2006-11-16,17.0
2006-11-17,17.0
2006-11-18,17.0
2006-11-19,17.0
2006-11-20,17.0
2006-11-21,17.0
2006-11-22,17.0
2006-11-23,17.0
2006-11-24,17.0
2006-11-25,17.0
2006-11-26,17.0
2006-11-27,17.0
2006-11-28,15.0
2006-11-29,15.0
2006-11-30,15.0
2006-12-01,15.0
2006-12-02,15.0
2006-12-03,15.0
2006-12-04,15.0
2006-12-05,15.0
2006-12-06,15.0
2006-12-07,15.0
2006-12-08,15.0
2006-12-09,15.0
2006-12-10,15.0
2006-12-11,15.0
2006-12-12,15.0
2006-12-13,15.0
2006-12-14,15.0
2006-12-15,15.0
2006-12-16,15.0
2006-12-17,15.0
2006-12-18,15.0
2006-12-19,15.0
2006-12-20,15.0
2006-12-21,15.0
2006-12-22,15.0
2006-12-23,15.0
2006-12-24,15.0
2006-12-25,15.0
2006-12-26,15.0
2006-12-27,15.0
2006-12-28,15.0
2006-12-29,15.0
2006-12-30,15.0
2006-12-31,15.0
2007-01-01,15.0
2007-01-02,15.0
2007-01-03,15.0
2007-01-04,11.0
2007-01-05,11.0
2007-01-06,11.0
2007-01-07,11.0
2007-01-08,11.0
2007-01-09,11.0
2007-01-10,11.0
2007-01-11,11.0
2007-01-12,11.0
2007-01-13,11.0
2007-01-14,11.0
2007-01-15,11.0
2007-01-16,11.0
2007-01-17,11.0
2007-01-18,11.0
2007-01-19,11.0
2007-01-20,11.0
2007-01-21,11.0
2007-01-22,11.0
2007-01-23,11.0
2007-01-24,11.0
2007-01-25,11.0
2007-01-26,11.0
2007-01-27,11.0
2007-01-28,11.0
2007-01-29,11.0
2007-01-30,11.0
2007-01-31,11.0
2007-02-01,11.0
2007-02-02,11.0
2007-02-03,11.0
2007-02-04,11.0
2007-02-05,11.0
2007-02-06,11.0
2007-02-07,13.0
2007-02-08,13.0
2007-02-09,13.0
2007-02-10,13.0
2007-02-11,13.0
2007-02-12,13.0
2007-02-13,13.0
2007-02-14,13.0
2007-02-15,13.0
2007-02-16,13.0
2007-02-17,13.0
2007-02-18,13.0
2007-02-19,13.0
2007-02-20,13.0
2007-02-21,13.0
2007-02-22,13.0
2007-02-23,13.0
2007-02-24,13.0
2007-02-25,13.0
2007-02-26,13.0
2007-02-27,13.0
2007-02-28,13.0
2007-03-01,13.0
2007-03-02,13.0
2007-03-03,13.0
2007-03-04,13.0
2007-03-05,13.0
2007-03-06,13.0
2007-03-07,13.0
2007-03-08,13.0
2007-03-09,13.0
2007-03-10,13.0
2007-03-11,13.0
2007-03-12,13.0
2007-03-13,13.0
2007-03-14,13.0
2007-03-15,13.0